Location: Alpha Ridge Park
(39.3209°N, 76.9128°W)
Time: 05:24:12
(UTC-04:00)

Altair - All Passes

Search period start: 19 May 2019 00:00
Search period end: 29 May 2019 00:00
Orbit: 1501 x 1683 km, 47.2° (Epoch: 17 May)

Date Brightness Start Highest point End Pass type
(mag) Time Alt. Az. Time Alt. Az. Time Alt. Az.
19 May - 02:54:17 10° SE 02:56:56 11° ESE 02:59:36 10° ESE visible
19 May - 04:50:25 10° SSW 04:59:59 49° SE 05:09:33 10° ENE visible
19 May - 06:54:27 10° WSW 07:04:38 74° NNW 07:14:45 10° ENE daylight
19 May - 09:00:46 10° WNW 09:10:42 55° N 09:20:22 10° ENE daylight
19 May - 11:06:35 10° WNW 11:16:40 76° NNE 11:26:22 10° ESE daylight
19 May - 13:11:56 10° WNW 13:21:07 46° SW 13:29:58 10° SSE daylight
20 May - 04:25:27 10° SSW 04:34:50 46° SE 04:44:17 10° ENE visible
20 May - 06:29:10 10° WSW 06:39:23 78° NNW 06:49:31 10° ENE daylight
20 May - 08:35:26 10° WNW 08:45:22 55° N 08:55:05 10° ENE daylight
20 May - 10:41:19 10° WNW 10:51:26 73° NNE 11:01:09 10° ESE daylight
20 May - 12:46:38 10° WNW 12:56:01 50° SW 13:05:03 10° SSE daylight
20 May - 14:56:52 10° WSW 14:58:54 11° WSW 15:00:55 10° SW daylight
21 May - 04:00:31 10° SSW 04:09:43 42° SE 04:18:58 10° ENE visible
21 May - 06:03:55 10° WSW 06:14:08 81° NNW 06:24:18 10° ENE daylight
21 May - 08:10:06 10° W 08:20:04 55° N 08:29:49 10° ENE daylight
21 May - 10:16:04 10° WNW 10:26:11 70° NNE 10:35:55 10° ESE daylight
21 May - 12:21:21 10° WNW 12:30:54 54° SW 12:40:05 10° SSE daylight
21 May - 14:30:09 10° W 14:33:54 13° WSW 14:37:36 10° SW daylight
22 May - 03:35:37 10° SSW 03:44:36 38° SE 03:53:40 10° ENE visible
22 May - 05:38:42 10° WSW 05:48:53 85° NNW 05:59:05 10° ENE daylight
22 May - 07:44:46 10° W 07:54:45 56° N 08:04:33 10° ENE daylight
22 May - 09:50:48 10° WNW 10:00:55 68° NNE 10:10:41 10° ESE daylight
22 May - 11:56:05 10° WNW 12:05:46 58° SW 12:15:05 10° SE daylight
22 May - 14:04:03 10° W 14:08:53 15° WSW 14:13:39 10° SSW daylight
23 May - 03:10:46 10° SSW 03:19:30 35° SE 03:28:19 10° ENE visible
23 May - 05:13:29 10° WSW 05:23:39 89° NNW 05:33:52 10° ENE visible
23 May - 07:19:26 10° W 07:29:26 56° N 07:39:16 10° ENE daylight
23 May - 09:25:32 10° WNW 09:35:38 65° NNE 09:45:25 10° E daylight
23 May - 11:30:49 10° WNW 11:40:38 63° SW 11:50:04 10° SE daylight
23 May - 13:38:12 10° W 13:43:52 17° WSW 13:49:27 10° SSW daylight
24 May - 02:45:58 10° S 02:54:24 32° SE 03:02:57 10° ENE visible
24 May - 04:48:17 10° SW 04:58:26 87° SSE 05:08:39 10° ENE visible
24 May - 06:54:06 10° W 07:04:06 57° N 07:14:00 10° ENE daylight
24 May - 09:00:16 10° WNW 09:10:21 63° NNE 09:20:09 10° E daylight
24 May - 11:05:33 10° WNW 11:15:29 67° SW 11:25:02 10° SE daylight
24 May - 13:12:29 10° W 13:18:50 19° SW 13:25:04 10° SSW daylight
25 May - 02:21:12 10° S 02:29:19 29° SE 02:37:32 10° ENE visible
25 May - 04:23:07 10° SW 04:33:13 83° SSE 04:43:25 10° ENE visible
25 May - 06:28:46 10° W 06:38:48 58° N 06:48:44 10° ENE daylight
25 May - 08:34:59 10° WNW 08:45:04 61° NNE 08:54:53 10° E daylight
25 May - 10:40:18 10° WNW 10:50:19 72° SW 10:59:58 10° SE daylight
25 May - 12:46:53 10° W 12:53:48 22° SW 13:00:35 10° S daylight
26 May - 01:56:29 10° S 02:04:15 26° SE 02:12:06 10° ENE visible
26 May - 03:57:57 10° SW 04:08:01 79° SE 04:18:12 10° ENE visible
26 May - 06:03:28 10° W 06:13:29 59° NNW 06:23:28 10° ENE daylight
26 May - 08:09:42 10° WNW 08:19:46 60° NNE 08:29:36 10° E daylight
26 May - 10:15:03 10° WNW 10:25:09 76° SW 10:34:53 10° SE daylight
26 May - 12:21:21 10° WNW 12:28:46 24° SW 12:36:00 10° S daylight
27 May - 01:31:51 10° S 01:39:11 24° SE 01:46:37 10° ENE visible
27 May - 03:32:49 10° SW 03:42:49 74° SE 03:52:58 10° ENE visible
27 May - 05:38:08 10° W 05:48:11 61° NNW 05:58:13 10° ENE daylight
27 May - 07:44:25 10° WNW 07:54:28 59° N 08:04:18 10° E daylight
27 May - 09:49:49 10° WNW 09:59:58 81° SW 10:09:46 10° SE daylight
27 May - 11:55:52 10° WNW 12:03:42 27° SW 12:11:21 10° S daylight
28 May - 01:07:17 10° S 01:14:07 21° SE 01:21:03 10° E visible
28 May - 03:07:43 10° SW 03:17:39 70° SE 03:27:44 10° ENE visible
28 May - 05:12:50 10° W 05:22:53 63° NNW 05:32:57 10° ENE visible
28 May - 07:19:08 10° WNW 07:29:10 58° N 07:39:01 10° E daylight
28 May - 09:24:34 10° WNW 09:34:46 85° SSW 09:44:37 10° SE daylight
28 May - 11:30:26 10° WNW 11:38:38 30° SW 11:46:39 10° S daylight
